CAPE
0 0 0 0 0 0 0 0 0 0 0 0 0 0 39 222 179 125 1212 1139 924 1191 1465 1109 609 420 640 880 753 693 691 679 532 254 322 119 31 46 116 99 273 517 524 146 7 0 0 0 0
0 0 0 0 0 0 0 0 0 0 0 0 0 4 263 637 1154 1171 1022 1279 1129 1370 1463 1058 682 530 509 579 664 623 642 638 502 499 477 210 87 99 167 254 336 351 141 0 0 0 0 0 16
0 0 0 0 0 0 0 0 0 0 0 0 0 0 98 898 1345 1418 1435 1410 1186 1263 1343 1138 791 591 509 368 385 516 586 573 523 548 457 238 181 201 281 291 194 135 37 0 0 21 18 0 5
0 0 0 0 0 0 0 0 0 0 0 0 0 0 386 1298 1355 1356 1556 1421 1135 1205 1147 1173 678 470 373 285 315 306 349 402 461 467 362 241 217 263 290 230 177 220 25 0 30 55 0 0 0
0 0 0 0 0 0 0 0 0 0 0 0 10 36 512 1648 1844 1854 1598 1409 1057 1197 1203 1058 447 281 265 272 197 106 45 50 93 152 209 242 251 264 254 172 178 224 27 0 34 32 9 0 0
0 0 0 0 0 0 0 0 0 0 0 0 181 258 614 1892 1876 1859 1654 1356 1063 1132 1263 1112 507 227 157 241 189 90 42 49 60 75 128 192 231 248 207 147 130 85 13 0 16 12 0 0 0
0 0 0 0 0 0 0 0 0 0 0 1 10 328 236 1745 2003 1918 1695 1367 1211 1219 1378 1019 592 327 193 290 202 115 64 48 35 42 91 136 156 163 131 76 47 22 0 0 0 0 0 0 0
0 0 0 0 0 0 0 0 0 0 0 0 0 1 30 1320 2012 1847 1733 1447 1318 1313 1291 1136 777 402 275 469 278 138 107 86 57 41 38 96 132 106 83 70 81 75 14 0 0 0 0 0 0
0 0 0 0 0 0 0 0 0 0 0 0 0 0 0 976 1594 1758 1588 1370 1326 1241 1323 1297 1088 733 462 357 569 354 264 210 165 137 101 77 100 178 332 243 238 162 73 30 2 0 0 0 0
0 0 0 0 0 0 0 0 0 0 0 0 0 0 372 1362 1628 1268 1187 975 1022 1025 1139 1310 1254 921 619 462 652 675 595 493 490 438 476 256 335 359 296 341 181 136 100 60 41 22 5 0 0
0 0 0 0 0 0 0 0 0 0 0 0 0 0 0 579 1703 1391 1208 989 940 1130 1174 1359 1358 1212 679 329 649 781 790 822 780 770 723 574 428 315 182 181 188 206 164 135 107 124 65 22 9
0 0 0 0 0 0 0 0 0 0 0 0 0 0 0 0 442 1700 1390 1235 1213 1271 1320 1430 1481 1374 1086 555 592 644 627 813 672 713 838 707 502 434 367 327 278 414 225 189 197 86 80 24 7
0 0 0 0 0 0 0 0 0 0 0 0 0 0 0 0 0 9 1239 1642 1495 1216 1188 1418 1583 1547 1325 983 757 775 625 812 835 964 955 875 686 607 558 490 509 411 370 328 289 224 185 129 79
0 0 0 0 0 0 0 0 0 0 0 0 0 0 0 0 0 0 0 1091 1765 1682 1328 1302 1467 1573 1559 1292 1247 1083 1028 979 1104 999 1082 1085 894 668 764 737 627 518 449 401 348 331 316 273 225
0 0 0 0 0 0 0 0 0 0 0 0 0 0 0 0 0 0 0 0 158 1451 1879 1766 1572 1901 1753 1562 1611 1548 1426 1342 1376 1323 1556 1435 1172 912 965 974 910 772 751 670 588 547 478 453 407
0 0 0 0 0 0 0 0 0 0 0 0 0 0 0 0 0 0 0 0 0 0 373 2163 1919 1734 1745 1728 1689 1707 1762 1741 1698 1653 1555 1460 1335 1122 887 1036 1042 1127 1065 887 821 771 732 656 535
0 0 0 0 0 0 0 0 0 0 0 0 0 0 0 0 0 0 0 0 0 0 0 108 1403 1749 1729 1586 1645 1667 1604 1566 1638 1754 1725 1674 1612 1617 1287 1407 1512 1500 1271 1251 1108 1091 883 845 913
0 0 0 0 0 0 0 0 0 0 0 0 0 0 0 0 0 0 0 0 0 0 31 416 947 1601 1658 1618 1559 1554 1559 1577 1680 1836 1820 1834 1812 1801 1697 1621 1463 1448 1398 1339 1228 1061 1227 1004 960
0 0 0 0 0 0 0 0 0 0 0 0 0 0 0 0 0 0 0 0 0 6 106 780 872 1223 1298 1328 1368 1492 1570 1582 1873 1976 1705 1527 1465 1385 1440 1434 1338 1224 860 790 924 977 939 694 741
0 0 0 0 0 0 0 0 0 0 0 4 0 0 0 0 5 0 0 0 0 35 329 720 990 1127 1309 1026 872 686 446 202 132 55 145 218 124 121 98 29 0 0 0 33 33 90 26 31 213
0 0 0 0 0 0 0 0 0 0 0 0 0 0 0 0 0 0 0 0 0 75 311 351 249 354 451 183 12 1 0 0 0 0 0 0 0 0 0 0 0 0 0 0 0 0 0 0 0
0 0 0 0 0 0 0 0 0 0 0 0 0 0 0 0 0 0 0 0 0 114 136 55 12 3 0 0 0 0 0 0 0 0 0 0 0 0 0 0 0 0 0 0 0 0 0 0 0
0 0 0 0 0 0 0 0 0 0 0 0 0 0 0 0 0 0 0 1 5 10 0 0 0 0 0 0 0 0 0 0 0 0 0 0 0 0 0 0 0 0 0 0 0 0 0 0 0
0 0 0 0 0 0 0 0 0 0 0 0 0 0 0 0 0 12 40 16 1 0 0 0 0 0 0 0 0 0 0 0 0 0 0 0 0 0 0 0 0 0 0 10 15 33 37 12 0
0 0 0 0 0 0 0 0 0 0 0 0 0 0 0 1 14 1 0 0 0 0 0 0 0 0 0 0 0 0 0 0 0 0 0 0 0 0 0 0 0 0 0 0 0 5 13 17 2
0 0 0 0 0 0 0 0 0 0 0 0 0 0 0 0 0 0 0 0 0 0 0 0 0 0 0 0 0 0 0 0 0 0 0 0 0 0 0 0 0 0 0 0 0 0 0 0 1
0 0 0 0 0 0 0 0 0 0 0 0 0 0 0 0 0 0 0 0 0 0 0 0 0 0 0 0 0 0 0 0 0 0 0 0 0 0 0 0 0 0 0 0 0 0 0 0 0
0 0 3 0 0 0 0 0 0 0 0 0 0 0 0 0 0 0 0 0 0 0 0 0 0 0 0 0 0 0 0 0 0 0 0 0 0 0 0 0 0 0 0 0 0 0 0 0 0
0 0 0 2 0 9 2 0 0 0 0 0 0 0 0 0 0 0 0 0 0 0 0 0 0 0 0 0 0 0 0 0 0 0 0 0 0 0 0 0 0 0 0 0 0 1 0 0 0
0 0 8 17 13 0 6 12 0 0 0 0 0 0 0 0 0 0 0 0 0 0 0 0 0 0 0 0 0 0 0 0 0 0 0 0 0 0 0 0 0 0 0 0 0 0 0 0 0
CIN
0 0 0 0 0 0 0 0 0 0 0 0 0 0 -111 -134 -70 -30 -426 -438 -449 -389 -311 -349 -401 -393 -293 -225 -235 -232 -198 -184 -208 -285 -256 -344 -443 -402 -310 -306 -194 -99 -92 -239 -129 0 0 0 0
0 0 0 0 0 0 0 0 0 0 0 0 0 -15 -106 -66 -177 -272 -394 -426 -416 -358 -293 -321 -380 -376 -331 -282 -237 -244 -235 -211 -227 -220 -223 -300 -369 -356 -294 -240 -186 -161 -260 0 0 0 0 0 -114
0 0 0 0 0 0 0 0 0 0 0 0 0 0 -112 -73 -201 -272 -372 -400 -402 -382 -319 -322 -356 -356 -334 -334 -311 -272 -266 -253 -237 -224 -261 -321 -323 -314 -263 -244 -262 -274 -349 0 0 -274 -248 0 -89
0 0 0 0 0 0 0 0 0 0 0 0 0 0 -123 -185 -203 -288 -355 -373 -389 -378 -360 -316 -401 -398 -374 -380 -356 -357 -340 -307 -276 -277 -315 -353 -332 -298 -271 -269 -274 -234 -306 0 -295 -265 -6 0 0
0 0 0 0 0 0 0 0 0 0 0 0 -28 -39 -61 -169 -255 -292 -328 -351 -371 -352 -327 -338 -454 -466 -427 -417 -426 -457 -477 -468 -428 -401 -384 -362 -337 -312 -291 -300 -275 -238 -313 0 -313 -305 -226 0 0
0 0 0 0 0 0 0 0 0 0 0 0 -69 -76 -83 -201 -217 -273 -288 -318 -328 -313 -285 -305 -424 -494 -467 -428 -452 -478 -474 -500 -472 -454 -413 -379 -342 -325 -317 -316 -301 -306 -361 0 -287 -374 0 0 0
0 0 0 0 0 0 0 0 0 0 0 -15 -97 -47 -106 -131 -193 -219 -255 -298 -319 -302 -251 -294 -363 -431 -461 -400 -418 -457 -469 -477 -485 -482 -436 -393 -358 -337 -333 -345 -352 -367 0 0 0 0 0 0 0
0 0 0 0 0 0 0 0 0 0 0 0 0 -54 -52 -102 -157 -191 -219 -254 -255 -275 -266 -248 -300 -370 -389 -319 -371 -409 -410 -427 -445 -460 -438 -389 -344 -320 -332 -345 -327 -314 -391 0 0 0 0 0 0
0 0 0 0 0 0 0 0 0 0 0 0 0 0 0 -168 -177 -174 -207 -237 -240 -240 -249 -238 -255 -303 -322 -318 -264 -303 -309 -319 -342 -345 -360 -363 -296 -246 -170 -197 -201 -232 -291 -387 -145 0 0 0 0
0 0 0 0 0 0 0 0 0 0 0 0 0 0 -180 -159 -93 -130 -181 -223 -254 -267 -269 -238 -250 -280 -308 -297 -228 -189 -189 -203 -191 -176 -160 -217 -170 -147 -156 -135 -212 -226 -243 -282 -336 -408 -280 0 0
0 0 0 0 0 0 0 0 0 0 0 0 0 0 0 -139 -92 -103 -107 -135 -177 -184 -207 -208 -206 -210 -282 -310 -221 -172 -145 -134 -127 -110 -97 -107 -123 -139 -173 -165 -165 -158 -180 -176 -204 -211 -262 -322 -356
0 0 0 0 0 0 0 0 0 0 0 0 0 0 0 0 -94 -54 -77 -108 -144 -193 -206 -204 -196 -191 -209 -273 -267 -213 -180 -132 -135 -118 -91 -92 -111 -119 -117 -111 -108 -123 -147 -146 -158 -185 -214 -273 -336
0 0 0 0 0 0 0 0 0 0 0 0 0 0 0 0 0 -45 -62 -68 -101 -139 -185 -203 -193 -178 -186 -220 -216 -215 -206 -156 -121 -92 -83 -81 -96 -95 -85 -86 -78 -79 -84 -107 -126 -134 -163 -173 -218
0 0 0 0 0 0 0 0 0 0 0 0 0 0 0 0 0 0 0 -93 -103 -114 -142 -182 -190 -181 -163 -175 -156 -162 -166 -149 -116 -114 -77 -67 -80 -106 -70 -66 -71 -79 -79 -80 -113 -119 -111 -119 -137
0 0 0 0 0 0 0 0 0 0 0 0 0 0 0 0 0 0 0 0 -173 -127 -117 -148 -183 -136 -139 -146 -120 -117 -115 -104 -85 -83 -45 -41 -55 -82 -69 -61 -68 -62 -51 -61 -69 -73 -70 -75 -86
0 0 0 0 0 0 0 0 0 0 0 0 0 0 0 0 0 0 0 0 0 0 -190 -146 -176 -187 -144 -135 -124 -94 -66 -57 -51 -42 -34 -39 -44 -64 -92 -74 -82 -49 -24 -41 -59 -62 -47 -59 -63
0 0 0 0 0 0 0 0 0 0 0 0 0 0 0 0 0 0 0 0 0 0 0 -189 -177 -190 -167 -157 -136 -113 -81 -69 -66 -41 -35 -25 -28 -21 -39 -30 -21 -9 -16 -24 -29 -22 -38 -39 -33
0 0 0 0 0 0 0 0 0 0 0 0 0 0 0 0 0 0 0 0 0 0 -172 -191 -208 -191 -182 -165 -131 -97 -78 -76 -72 -37 -29 -18 -16 -8 -4 -6 -14 -3 -3 -7 -10 -19 -0 -8 -6
0 0 0 0 0 0 0 0 0 0 0 0 0 0 0 0 0 0 0 0 0 -79 -116 -178 -189 -225 -207 -193 -148 -106 -83 -76 -27 -11 -31 -50 -49 -39 -15 -5 -5 -4 -26 -23 -5 -0 -0 -12 -4
0 0 0 0 0 0 0 0 0 0 0 -41 0 0 0 0 -193 0 0 0 0 -168 -207 -235 -234 -220 -193 -193 -196 -183 -204 -256 -246 -183 -140 -114 -120 -183 -176 -199 0 0 0 -135 -158 -103 -84 -75 -59
0 0 0 0 0 0 0 0 0 0 0 0 0 0 0 0 0 0 0 0 0 -263 -256 -253 -312 -300 -253 -297 -162 -66 0 0 0 0 0 0 0 0 0 0 0 0 0 0 0 0 0 0 0
0 0 0 0 0 0 0 0 0 0 0 0 0 0 0 0 0 0 0 0 -64 -361 -366 -388 -396 -234 0 0 0 0 0 0 0 0 0 0 0 0 0 0 0 0 0 0 0 0 0 0 0
0 0 0 0 0 0 0 0 0 0 0 0 0 0 0 0 0 0 0 -31 -374 -425 0 0 0 0 0 0 0 0 0 0 0 0 0 0 0 0 0 0 0 0 0 0 0 0 0 0 0
0 0 0 0 0 0 0 0 0 0 0 0 0 0 0 0 0 -428 -414 -436 -266 0 0 0 0 0 0 0 0 0 0 0 0 0 0 0 0 0 0 0 0 0 0 -90 -108 -71 -61 -20 0
0 0 0 0 0 0 0 0 0 0 0 0 0 0 0 -348 -366 -94 0 0 0 0 0 0 0 0 0 0 0 0 0 0 0 0 0 0 0 0 0 0 0 0 0 0 0 -45 -76 -68 -13
0 0 0 0 0 0 0 0 0 0 0 0 0 0 0 0 0 0 0 0 0 0 0 0 0 0 0 0 0 0 0 0 0 0 0 0 0 0 0 0 0 0 0 0 0 0 0 0 -5
0 0 0 0 0 0 0 0 0 0 0 0 0 0 0 0 0 0 0 0 0 0 0 0 0 0 0 0 0 0 0 0 0 0 0 0 0 0 0 0 0 0 0 0 0 0 0 0 0
0 0 -8 0 0 0 0 0 0 0 0 0 0 0 0 0 0 0 0 0 0 0 0 0 0 0 0 0 0 0 0 0 0 0 0 0 0 0 0 0 0 0 0 0 0 0 0 0 0
0 0 0 -11 -13 -3 -1 0 0 0 0 0 0 0 0 0 0 0 0 0 0 0 0 0 0 0 0 0 0 0 0 0 0 0 0 0 0 0 0 0 0 0 0 0 -1 -1 0 0 0
-2 -2 -36 -13 -11 -1 -26 -7 0 0 0 0 0 0 0 0 0 0 0 0 0 0 0 0 0 0 0 0 0 0 0 0 0 0 0 0 0 0 0 0 0 0 0 0 0 0 0 0 0
Wind_Speed
26 24 22 22 24 23 23 20 18 18 18 17 27 23 23 19 15 16 17 7 6 16 20 21 22 21 20 20 22 22 21 19 17 16 17 18 19 20 21 20 20 20 19 20 21 22 22 22 23
21 20 21 22 26 27 25 22 21 21 24 29 23 19 19 19 17 16 7 10 7 14 19 20 21 21 20 19 21 21 20 20 18 18 17 18 19 20 20 20 20 21 21 21 21 22 21 21 21
19 19 24 25 27 28 27 22 22 22 26 26 22 20 19 18 18 14 14 3 6 6 12 16 17 18 18 19 18 19 20 19 20 19 18 18 20 22 23 23 23 22 21 21 21 21 20 20 20
17 20 23 33 33 31 31 21 21 25 25 22 25 25 16 17 16 14 1 1 4 5 8 11 14 14 15 16 17 16 16 18 20 20 18 19 20 21 20 20 20 19 18 18 18 18 18 18 17
18 21 33 37 39 34 30 28 28 28 28 29 25 21 18 16 14 9 2 1 5 5 7 9 11 12 14 15 14 14 14 14 14 14 15 15 16 17 16 16 16 16 15 15 15 15 15 14 13
21 23 34 43 37 32 32 31 30 31 30 28 23 24 20 17 12 7 6 3 3 4 5 6 8 10 11 13 13 12 13 12 11 11 11 12 14 13 13 12 12 12 12 12 12 12 12 11 11
23 26 36 38 36 37 37 31 31 31 31 26 21 23 22 19 15 9 8 5 4 4 3 4 6 6 7 8 8 9 10 9 8 8 8 9 10 9 9 9 8 8 8 8 8 7 8 8 8
22 25 32 33 34 38 28 27 25 30 32 25 23 23 21 18 11 8 8 7 6 5 5 5 4 4 3 3 5 6 6 5 4 4 5 5 5 5 6 6 4 4 5 5 6 6 5 5 5
18 31 36 34 31 33 26 31 25 26 28 25 24 21 21 14 9 9 8 8 9 8 8 8 7 6 5 3 2 1 1 1 2 3 3 3 3 2 2 2 4 4 6 6 8 10 11 14 18
22 32 35 29 31 33 33 36 34 29 31 28 23 18 16 13 12 12 11 9 12 12 10 8 8 7 6 7 5 4 4 5 5 5 5 5 6 5 5 6 8 10 11 12 12 13 16 18 18
24 33 29 30 30 32 37 32 28 34 37 30 27 20 16 16 17 15 13 11 10 12 13 10 9 9 7 7 8 7 8 8 8 7 7 7 8 9 9 11 12 13 14 16 17 18 18 18 19
28 27 29 28 28 30 35 34 37 36 36 31 27 26 19 17 22 21 17 16 13 12 13 11 11 11 10 10 9 10 11 11 11 10 10 11 12 12 13 13 15 15 16 18 19 20 21 21 22
26 29 29 31 32 35 36 40 41 42 38 36 32 29 23 18 16 18 24 19 17 16 14 13 12 14 14 14 14 14 14 13 14 14 13 13 15 15 15 17 18 19 20 20 22 23 23 25 26
21 26 30 29 30 30 34 41 41 38 36 42 37 36 28 22 21 18 16 21 21 21 20 18 17 18 19 19 18 16 16 15 14 15 16 16 18 18 19 19 19 21 22 23 25 26 29 28 30
22 27 28 27 27 29 28 38 41 38 38 41 33 34 33 30 25 24 24 21 21 25 24 24 22 22 22 22 21 20 17 16 16 18 19 18 19 20 21 22 21 23 24 26 26 28 29 30 31
21 22 26 23 18 22 20 40 37 33 38 41 38 39 35 37 32 27 26 24 20 22 24 25 25 25 26 24 21 20 20 20 22 22 22 21 21 21 21 23 25 24 26 27 28 28 31 32 33
18 21 21 25 16 18 16 31 31 33 35 37 37 33 36 36 42 38 30 24 22 20 20 23 25 25 25 24 23 22 22 24 23 23 23 22 20 21 22 25 27 27 29 30 31 32 32 34 34
17 17 20 21 20 12 17 24 22 21 26 31 33 34 41 41 46 47 29 21 23 20 18 19 23 23 23 22 22 20 21 20 21 22 21 21 21 23 24 26 28 29 30 32 32 33 33 34 35
21 24 24 25 12 13 9 12 10 26 23 30 32 33 30 33 31 38 29 32 25 21 21 21 18 17 16 15 16 14 15 17 20 21 21 20 22 23 23 24 26 27 29 30 32 33 34 35 36
22 28 29 26 14 7 9 3 6 14 28 31 33 33 31 29 28 29 19 17 19 23 18 15 12 8 6 7 9 11 10 13 13 15 17 18 18 20 22 24 26 28 31 32 33 35 37 37 35
21 24 29 21 23 11 11 9 5 5 27 27 30 30 28 31 23 33 21 16 15 15 15 7 7 6 6 5 6 8 10 13 15 17 19 20 21 23 25 27 29 30 32 35 35 35 36 39 38
30 18 22 31 16 7 10 11 11 11 10 21 22 22 25 23 25 21 11 11 7 8 6 4 2 3 5 6 9 12 16 19 20 21 23 24 27 29 29 30 31 32 33 35 35 34 34 34 38
23 21 11 17 11 15 11 11 13 15 11 15 10 17 16 12 15 11 7 9 8 5 4 5 6 8 10 12 13 16 19 21 24 26 28 29 30 31 32 32 32 32 31 31 32 31 31 30 33
17 17 15 15 15 8 14 15 15 13 11 11 15 12 7 6 4 3 5 4 5 6 8 8 9 11 14 16 17 18 20 24 25 27 30 32 34 34 34 34 34 33 34 34 33 32 31 31 32
16 15 19 19 17 21 18 15 16 12 12 12 13 12 11 8 5 5 5 6 6 8 10 11 13 14 15 16 18 20 23 26 29 31 33 36 37 38 39 38 38 38 37 37 36 36 35 34 34
17 16 22 23 23 23 18 16 20 20 21 19 13 8 6 7 7 6 8 9 10 11 12 13 14 16 19 20 22 24 27 30 32 34 37 39 41 40 40 41 41 40 40 40 39 39 38 38 38
18 20 19 20 21 24 22 23 24 21 21 15 11 9 9 9 10 10 11 11 11 12 12 14 16 19 21 24 26 30 32 35 38 39 40 41 42 44 43 43 44 44 43 43 43 41 39 39 39
19 12 21 21 26 27 23 25 24 18 14 8 5 4 6 9 10 9 9 9 10 12 14 17 19 22 25 27 30 33 36 38 40 43 46 46 46 43 44 44 45 46 47 46 46 44 40 40 39
18 20 20 19 23 27 27 27 20 18 11 7 7 7 7 8 9 10 10 11 13 15 18 21 25 29 31 34 35 37 40 42 43 44 45 45 42 41 41 42 41 42 43 41 42 41 40 40 39
17 20 21 26 25 22 24 24 21 19 11 8 8 8 8 8 10 10 13 16 19 21 24 27 30 33 35 37 39 42 43 44 45 46 45 41 42 40 40 39 40 41 41 41 41 42 41 41 41
Wind_Direction
278 284 290 284 273 272 271 278 288 291 295 301 295 293 287 294 299 303 293 290 82 113 117 121 121 118 109 104 106 108 108 104 100 97 95 93 96 101 103 101 100 98 93 93 96 97 94 91 91
279 282 285 276 268 264 268 273 279 287 291 287 299 305 292 290 294 305 321 284 103 113 116 120 122 120 117 109 109 110 109 107 104 102 97 96 100 105 107 105 106 107 108 108 108 107 103 98 95
277 280 273 269 267 261 265 271 277 288 289 287 297 303 301 292 296 299 283 330 121 124 112 116 119 117 116 116 111 110 110 110 111 108 102 102 108 114 118 119 120 119 118 118 116 113 110 107 105
272 273 273 262 261 262 259 270 278 286 291 291 288 286 299 302 298 295 275 87 133 139 119 117 119 117 115 112 113 108 107 109 114 113 108 110 114 115 116 113 113 115 111 110 111 112 112 110 106
272 270 261 261 260 264 265 273 273 281 286 285 285 283 286 300 307 299 255 152 152 155 129 127 126 121 120 117 114 110 108 106 106 104 104 107 111 112 112 109 108 106 104 105 109 111 110 107 99
265 267 261 258 263 266 265 269 275 274 282 286 283 279 282 291 296 290 270 273 158 174 152 140 136 129 125 122 120 115 113 108 102 99 101 106 111 110 110 109 104 99 98 100 103 109 110 106 104
264 263 262 265 265 264 263 270 270 274 275 281 289 281 282 283 283 276 274 265 222 171 189 171 152 144 133 127 123 121 118 110 101 97 98 103 109 109 109 107 101 92 87 83 79 84 97 106 103
269 269 267 267 267 264 269 269 275 271 270 283 284 279 280 285 279 272 273 261 247 216 221 221 222 197 169 145 136 130 122 106 87 81 82 87 91 93 102 105 86 62 45 37 33 24 23 34 26
276 265 265 267 267 267 273 267 275 280 270 280 280 279 283 283 270 272 269 258 251 251 241 242 238 238 245 243 239 167 132 43 18 5 24 33 23 41 19 358 343 344 345 346 337 329 326 319 308
269 267 268 275 273 272 271 266 267 273 270 270 281 281 281 267 264 266 266 260 251 251 249 243 242 242 249 267 273 272 291 301 312 320 330 331 327 330 327 319 312 311 313 315 317 318 314 310 310
274 271 278 280 279 276 270 272 273 266 264 268 272 274 279 265 263 265 268 268 264 260 256 255 254 255 249 261 270 279 287 292 297 302 308 313 315 313 309 309 307 305 306 306 307 305 307 308 309
276 279 279 285 281 279 273 274 267 264 263 268 275 275 270 267 264 264 267 269 272 268 261 259 260 261 263 269 272 279 281 286 292 298 301 303 303 304 304 306 305 303 303 302 301 302 301 302 301
279 283 284 283 281 278 277 269 265 263 264 265 271 266 263 266 270 275 270 272 271 269 267 263 260 261 264 266 273 274 275 281 291 297 299 300 301 302 304 303 303 303 304 303 301 301 301 301 299
291 291 290 290 286 284 277 271 266 265 267 263 265 261 255 258 267 275 286 273 270 268 267 267 264 263 263 265 269 274 274 283 289 298 298 296 297 299 300 302 302 302 302 302 299 299 298 301 298
297 293 297 294 290 286 281 273 266 269 265 258 263 259 249 250 265 269 281 285 279 269 265 264 265 265 263 264 267 273 278 283 291 295 296 296 295 297 297 300 301 302 305 302 302 301 300 299 299
296 302 299 309 302 300 279 277 273 271 260 253 258 258 256 250 256 267 277 281 293 282 275 267 263 263 263 264 269 275 278 283 287 292 295 294 294 295 299 299 300 303 301 302 302 302 299 299 299
299 294 302 310 324 310 291 290 282 269 255 250 254 254 252 259 251 261 276 277 290 289 283 271 266 267 265 268 271 276 280 282 288 293 295 295 296 298 299 300 301 301 300 300 299 299 299 298 299
292 300 309 314 334 325 306 300 293 277 245 245 254 255 254 259 250 256 264 276 281 285 287 283 270 270 271 273 275 283 285 287 292 295 298 298 298 298 299 301 302 303 301 301 300 300 300 299 300
290 294 299 298 8 344 329 324 301 268 249 246 251 256 256 252 246 250 261 264 277 280 279 274 279 279 276 274 278 287 288 294 294 296 299 302 303 303 304 306 308 307 306 305 304 302 301 300 299
284 277 269 263 10 49 13 87 136 283 258 252 250 252 250 253 252 253 269 267 268 269 270 278 293 309 305 296 298 299 307 307 311 313 313 314 314 313 311 310 310 309 307 306 306 304 301 300 299
280 277 266 304 320 360 12 21 64 331 257 263 256 254 255 255 257 254 265 268 271 265 269 294 308 319 327 331 329 319 318 315 311 311 312 312 312 312 311 310 309 308 307 306 305 304 302 300 298
270 285 260 264 328 350 353 0 1 327 271 264 259 258 259 260 267 271 256 252 250 265 280 303 360 356 333 329 316 310 305 304 309 310 310 310 309 308 308 309 308 309 308 307 307 307 305 304 301
280 284 281 297 323 317 335 341 345 323 300 267 249 254 256 264 261 270 262 256 263 272 276 296 303 311 312 314 318 313 309 312 311 310 309 309 309 310 309 309 309 309 310 309 308 308 307 308 305
293 290 286 291 300 305 308 312 325 321 322 279 266 268 273 274 275 283 275 264 267 275 281 294 300 307 306 308 310 312 311 311 312 312 309 309 309 309 310 310 309 307 306 306 307 306 304 304 304
282 277 271 277 283 283 290 299 300 319 318 308 289 283 276 279 272 261 261 272 281 288 289 294 299 302 308 312 313 314 313 312 310 310 309 309 308 308 308 309 308 306 304 303 302 301 301 301 300
273 268 268 269 276 280 286 293 285 291 293 294 298 297 285 273 268 270 271 276 282 289 294 292 296 300 304 308 309 312 311 310 310 309 309 308 307 308 308 307 306 305 303 301 299 297 297 296 296
273 270 277 280 285 282 286 288 287 295 297 300 292 283 271 269 273 278 285 289 291 294 298 301 301 302 306 308 309 308 309 307 306 308 308 308 308 307 307 307 305 303 302 299 297 296 295 293 293
273 275 272 277 273 278 287 286 287 298 302 310 296 273 269 278 283 294 300 304 307 307 309 309 310 309 310 310 309 309 308 309 308 307 306 307 307 309 309 308 306 304 302 298 296 295 295 293 291
272 271 278 281 279 280 283 284 297 295 298 291 285 287 284 285 287 291 298 305 308 310 309 308 308 307 307 308 309 308 308 308 308 308 309 310 312 312 311 310 310 309 306 305 302 299 295 292 291
281 276 274 274 279 288 289 288 297 301 296 289 287 288 298 303 303 305 303 303 305 307 308 308 308 306 307 309 308 307 308 308 309 310 310 313 312 312 311 312 311 310 309 307 304 302 299 294 290